688  
ASUS43 KLMK 011310  
RWRKY  
KENTUCKY REGIONAL WEATHER ROUNDUP  
NATIONAL WEATHER SERVICE LOUISVILLE KY  
900 AM EDT MON SEP 01 2014  
 
NOTE "FAIR" INDICATES FEW OR NO CLOUDS BELOW 12,000 FEET  
WITH NO SIGNIFICANT WEATHER AND/OR S TO VISIBILITY
.  
 
KYZ001>023-026-027-061>063-070>075-011400-  
WESTERN AND SOUTH CENTRAL KENTUCKY  
 
CITY SKY/WX TMP DP RH WIND PRES REMARKS
 
PADUCAH PTSUNNY 79 74 84 SW12 30.00R  
HENDERSON CLOUDY 75 72 88 SW7 29.98F  
OWENSBORO PTSUNNY 75 75 100 S10 30.00F  
HOPKINSVILLE SUNNY 76 76 100 S8 30.05R  
BOWLING GREEN CLOUDY 75 72 90 S7 30.07R  
GLASGOW CLOUDY 74 73 98 SW7 30.07S  

 
 
KYZ024-025-028>034-038-045-046-053-011400-  
NORTH CENTRAL KENTUCKY  
 
CITY SKY/WX TMP DP RH WIND PRES REMARKS
 
LOUISVILLE/SDF PTSUNNY 77 72 84 SW8 30.02S  
LOUISVILLE/LOU CLOUDY 76 72 87 S5 30.03R  
FORT KNOX PTSUNNY 73 73 100 S9 30.03S  

 
 
KYZ035>037-039>044-047>052-055>060-089>105-011400-  
NORTHEAST KENTUCKY  
 
CITY SKY/WX TMP DP RH WIND PRES REMARKS
 
LEXINGTON CLOUDY 75 71 87 SW12 30.07R  
COVINGTON LGT RAIN 75 71 87 SW8 30.01S FOG  
FRANKFORT CLOUDY 75 72 90 SW9 30.04R  

 
 
KYZ054-064>069-076>088-106>120-011400-  
SOUTHEAST KENTUCKY  
 
CITY SKY/WX TMP DP RH WIND PRES REMARKS
 
JACKSON CLOUDY 72 69 90 CALM 30.12S  
LONDON MOSUNNY 75 68 78 SW6 30.12S  
SOMERSET SUNNY 72 70 94 S3 30.11F  
MIDDLESBORO CLOUDY 70 69 95 CALM 30.14S  
MONTICELLO SUNNY 77 72 84 S6 30.12S  

 
 
CLICK HERE TO GO TO PREVIOUS BULLETINS.

The Nexlab KY Page Main Text Page